Sitka, AK

4:47 AM AKDT on September 22, 2017 (GMT -0800)
Sitka Rocky Gutierrez

Weather History for PASI - January, 2014

Change the Weather History Date:

Friday, January 10, 2014

  Actual Average Record
Temperature  
Mean Temperature 36 °F -  
Max Temperature 39 °F 35 °F 52 °F (1981)
Min Temperature 30 °F 27 °F 6 °F (1953)
Degree Days  
Heating Degree Days 30    
Moisture  
Dew Point 34 °F    
Average Humidity 93    
Maximum Humidity 97    
Minimum Humidity 79    
Precipitation  
Precipitation 0.24 in - - ()
Sea Level Pressure  
Sea Level Pressure 29.49 in    
Wind  
Wind Speed 6 mph (East)    
Max Wind Speed 13 mph    
Max Gust Speed -    
Visibility 9 miles    
Events Rain    
Averages and records for this station are not official NWS values.
T = Trace of Precipitation, MM = Missing Value Source: NWS Daily Summary

Daily Weather History Graph

Daily Weather History Graph

Search for Another Location

Airport or City:

Trip Planner

Search our weather history database for the weather conditions in past years. The results will help you decide how hot, cold, wet, or windy it might be!

Date:

Astronomy

Jan. 10, 2014 Rise Set
Actual Time 8:33 AM AKST 3:44 PM AKST
Civil Twilight 7:46 AM AKST 4:32 PM AKST
Nautical Twilight 6:57 AM AKST 5:21 PM AKST
Astronomical Twilight 6:10 AM AKST 6:07 PM AKST
Moon 12:10 PM AKST (1/10) 3:29 AM AKST (1/10)
Length of Visible Light 8h 45m
Length of Day
7h 10m
Waxing Gibbous, 76% of the Moon is Illuminated
Jan 10
Waxing Gibbous
Jan 15
Full
Jan 23
Last Quarter
Jan 30
New
Feb 6
First Quarter

Hourly Weather History & Observations

Time (AKST) Temp. Windchill Dew Point Humidity Pressure Visibility Wind Dir Wind Speed Gust Speed Precip Events Conditions
12:36 AM 39.9 °F 32.5 °F 34.0 °F 79% 29.53 in 6.0 mi SSW 12.7 mph - 0.01 in Rain Light Rain
12:53 AM 37.9 °F 35.5 °F 35.1 °F 89% 29.54 in 10.0 mi South 3.5 mph - 0.01 in   Overcast
1:53 AM 39.9 °F 36.7 °F 36.0 °F 86% 29.55 in 10.0 mi SW 4.6 mph - 0.01 in Rain Light Rain
2:28 AM 37.0 °F 33.3 °F 35.1 °F 93% 29.55 in 7.0 mi East 4.6 mph - 0.00 in Rain Light Rain
2:53 AM 37.0 °F - 35.1 °F 93% 29.56 in 6.0 mi Calm Calm - 0.03 in Rain Light Rain
3:03 AM 37.0 °F 32.4 °F 35.1 °F 93% 29.56 in 7.0 mi ESE 5.8 mph - 0.00 in Rain Light Rain
3:53 AM 35.1 °F 30.1 °F 34.0 °F 96% 29.56 in 10.0 mi East 5.8 mph - 0.02 in   Overcast
4:09 AM 35.1 °F 30.1 °F 34.0 °F 96% 29.57 in 10.0 mi ENE 5.8 mph - 0.00 in Rain Light Rain
4:23 AM 36.0 °F 33.3 °F 35.1 °F 97% 29.57 in 10.0 mi East 3.5 mph - 0.00 in Rain Light Rain
4:32 AM 35.1 °F 30.1 °F 34.0 °F 96% 29.57 in 10.0 mi East 5.8 mph - 0.01 in Rain Light Rain
4:39 AM 35.1 °F 31.0 °F 34.0 °F 96% 29.58 in 10.0 mi East 4.6 mph - 0.01 in Rain Light Rain
4:53 AM 35.1 °F 30.1 °F 34.0 °F 96% 29.57 in 10.0 mi East 5.8 mph - 0.01 in Rain Light Rain
5:53 AM 35.1 °F 29.3 °F 34.0 °F 96% 29.56 in 7.0 mi East 6.9 mph - 0.03 in Rain Light Rain
6:27 AM 35.1 °F 29.3 °F 34.0 °F 96% 29.56 in 10.0 mi East 6.9 mph - 0.01 in   Overcast
6:53 AM 35.1 °F 30.1 °F 34.0 °F 96% 29.56 in 10.0 mi East 5.8 mph - 0.01 in   Overcast
7:53 AM 36.0 °F 31.1 °F 34.0 °F 93% 29.58 in 10.0 mi East 5.8 mph - 0.00 in   Overcast
8:29 AM 36.0 °F 32.1 °F 35.1 °F 97% 29.58 in 10.0 mi NE 4.6 mph - N/A   Overcast
8:53 AM 37.0 °F 34.5 °F 35.1 °F 93% 29.58 in 10.0 mi Variable 3.5 mph - N/A   Overcast
9:08 AM 36.0 °F 31.1 °F 33.1 °F 89% 29.58 in 4.0 mi East 5.8 mph - 0.04 in   Small Hail
9:15 AM 36.0 °F 30.3 °F 34.0 °F 93% 29.58 in 10.0 mi East 6.9 mph - 0.04 in Rain Light Rain
9:53 AM 36.0 °F 31.1 °F 34.0 °F 93% 29.59 in 10.0 mi ESE 5.8 mph - 0.05 in   Overcast
10:42 AM 36.0 °F 30.3 °F 34.0 °F 93% 29.57 in 10.0 mi East 6.9 mph - N/A   Overcast
10:53 AM 36.0 °F 31.1 °F 35.1 °F 97% 29.57 in 10.0 mi NW 5.8 mph - N/A   Overcast
11:53 AM 37.9 °F 35.5 °F 33.1 °F 83% 29.56 in 10.0 mi ENE 3.5 mph - 0.00 in Rain Light Rain
12:07 PM 37.9 °F 35.5 °F 34.0 °F 86% 29.56 in 10.0 mi NE 3.5 mph - 0.00 in   Overcast
12:53 PM 37.0 °F 29.8 °F 34.0 °F 89% 29.55 in 10.0 mi SE 10.4 mph - 0.00 in   Overcast
1:53 PM 36.0 °F 30.3 °F 34.0 °F 93% 29.51 in 10.0 mi ESE 6.9 mph - N/A   Overcast
2:53 PM 36.0 °F 30.3 °F 33.1 °F 89% 29.48 in 5.0 mi ESE 6.9 mph - 0.04 in Rain Light Rain
3:00 PM 36.0 °F 31.1 °F 33.1 °F 89% 29.47 in 6.0 mi ENE 5.8 mph - 0.02 in Rain Rain
3:44 PM 35.1 °F 26.9 °F 33.1 °F 92% 29.44 in 10.0 mi ENE 11.5 mph - 0.03 in Rain Light Rain
3:53 PM 35.1 °F 26.9 °F 33.1 °F 92% 29.44 in 10.0 mi ENE 11.5 mph - 0.03 in   Overcast
4:53 PM 35.1 °F 30.1 °F 33.1 °F 92% 29.40 in 10.0 mi East 5.8 mph - N/A   Overcast
5:00 PM 35.1 °F 29.3 °F 33.1 °F 92% 29.39 in 10.0 mi East 6.9 mph - N/A   Overcast
5:53 PM 34.0 °F 29.8 °F 32.0 °F 92% 29.36 in 10.0 mi NE 4.6 mph - N/A   Overcast
6:53 PM 33.1 °F 28.7 °F 32.0 °F 96% 29.32 in 10.0 mi East 4.6 mph - N/A   Clear
7:53 PM 32.0 °F 26.4 °F 30.9 °F 96% 29.29 in 10.0 mi NE 5.8 mph - N/A   Clear
8:53 PM 32.0 °F - 30.9 °F 96% 29.25 in 10.0 mi Calm Calm - N/A   Clear
9:53 PM 32.0 °F - 30.9 °F 96% 29.21 in 10.0 mi Calm Calm - N/A   Clear
10:53 PM 33.1 °F - 30.9 °F 92% 29.16 in 10.0 mi Calm Calm - N/A   Clear
11:53 PM 30.9 °F - 30.0 °F 96% 29.12 in 10.0 mi Calm Calm - N/A   Clear